Climatologie pour Saint-Brevin les Pins
Jour • Résumé pour février 12, 2017 Système :  Métrique    Anglais   Mixte
« - 1 jour
+ 1 jour »
Jour Semaine Mois Année Personnalisé
  Maximum : Minimum : Moyenne :
Température sous abri : -17.8 °C -18.1 °C -16.1 °C
Point de rosée : -17.8 °C -18.7 °C -16.9 °C
Humidité : Humidity % 84 % 89 %
Vitesse du vent : 0 km/h 0 km/h 20 km/h
Rafale : 0 km/h - -
Direction :- - East
Pression : 0 hPa 34130.9 hPa -
Précipitations : 20.32 mm    
Historical Graphs
 
 
Tableau de données pour février 12, 2017
Heure Tempé Pt rosée Pression Vent Vitesse Rafale Humidité Taux pluie (/hr) Soleil
-17.8 °C -17.8 °C 0 hPa Calm     Humidity % 0 mm SolarRadiationWatts/m^2 W/m2 Conditions
00:00 -17.4 °C -17.9 °C 34442.4 hPa ENE 5.1 km/h 10.3 km/h 93 % 0 mm 0 W/m2
00:10 -17.4 °C -18 °C 34442.4 hPa ENE 2.6 km/h 12.9 km/h 93 % 0 mm 0 W/m2
00:20 -17.5 °C -18.1 °C 34428.8 hPa ENE 5.1 km/h 12.9 km/h 93 % 0 mm 0 W/m2
00:25 -17.6 °C -18.1 °C 34428.8 hPa East 7.7 km/h 12.9 km/h 93 % 0 mm 0 W/m2
00:30 -17.6 °C -18.1 °C 34428.8 hPa East 2.6 km/h 12.9 km/h 94 % 0 mm 0 W/m2
00:40 -17.7 °C -18.1 °C 34428.8 hPa East 5.1 km/h 15.6 km/h 94 % 0 mm 0 W/m2
00:50 -17.7 °C -18.2 °C 34428.8 hPa East 2.6 km/h 10.3 km/h 94 % 0 mm 0 W/m2
00:55 -17.7 °C -18.2 °C 34428.8 hPa ENE 7.7 km/h 10.3 km/h 94 % 0 mm 0 W/m2
01:00 -17.7 °C -18.2 °C 34428.8 hPa ENE 2.6 km/h 12.9 km/h 94 % 0 mm 0 W/m2
01:10 -17.6 °C -18 °C 34428.8 hPa East 2.6 km/h 12.9 km/h 95 % 0 mm 0 W/m2
01:15 -17.6 °C -18.1 °C 34428.8 hPa ENE 5.1 km/h 12.9 km/h 94 % 0 mm 0 W/m2
01:20 -17.7 °C -18.1 °C 34428.8 hPa NE 2.6 km/h 12.9 km/h 94 % 0 mm 0 W/m2
01:25 -17.7 °C -18.1 °C 34428.8 hPa ENE 2.6 km/h 10.3 km/h 94 % 0 mm 0 W/m2
01:30 -17.7 °C -18.2 °C 34428.8 hPa ENE 2.6 km/h 10.3 km/h 94 % 0 mm 0 W/m2
01:40 -17.8 °C -18.3 °C 34428.8 hPa Calm   10.3 km/h 94 % 0 mm 0 W/m2
01:45 -17.8 °C -18.3 °C 34428.8 hPa ENE 5.1 km/h 12.9 km/h 94 % 0 mm 0 W/m2
01:55 -17.8 °C -18.2 °C 34428.8 hPa ENE 5.1 km/h 15.6 km/h 95 % 0 mm 0 W/m2
02:05 -17.7 °C -18.2 °C 34428.8 hPa East 2.6 km/h 20.8 km/h 94 % 0 mm 0 W/m2
02:10 -17.7 °C -18.2 °C 34418.7 hPa ENE 2.6 km/h 18.2 km/h 94 % 0 mm 0 W/m2
02:15 -17.7 °C -18.2 °C 34418.7 hPa East 2.6 km/h 18.2 km/h 94 % 0 mm 0 W/m2
02:25 -17.7 °C -18.2 °C 34428.8 hPa East 5.1 km/h 15.6 km/h 94 % 0 mm 0 W/m2
02:30 -17.7 °C -18.1 °C 34428.8 hPa East 2.6 km/h 15.6 km/h 94 % 0 mm 0 W/m2
02:40 -17.7 °C -18.2 °C 34428.8 hPa East 2.6 km/h 12.9 km/h 94 % 0 mm 0 W/m2
02:45 -17.8 °C -18.3 °C 34428.8 hPa East 12.9 km/h 12.9 km/h 94 % 0 mm 0 W/m2
02:55 -17.8 °C -18.3 °C 34428.8 hPa ENE 5.1 km/h 12.9 km/h 94 % 0 mm 0 W/m2
03:00 -17.9 °C -18.3 °C 34428.8 hPa ENE 2.6 km/h 10.3 km/h 94 % 0 mm 0 W/m2
03:10 -17.8 °C -18.2 °C 34428.8 hPa East 7.7 km/h 12.9 km/h 95 % 0 mm 0 W/m2
03:15 -17.8 °C -18.3 °C 34418.7 hPa East 2.6 km/h 12.9 km/h 94 % 0 mm 0 W/m2
03:25 -17.9 °C -18.4 °C 34418.7 hPa ENE 2.6 km/h 12.9 km/h 94 % 0 mm 0 W/m2
03:30 -18 °C -18.4 °C 34418.7 hPa East 7.7 km/h 12.9 km/h 94 % 0 mm 0 W/m2
03:40 -18.1 °C -18.4 °C 34418.7 hPa East 2.6 km/h 12.9 km/h 95 % 0 mm 0 W/m2
03:45 -18.1 °C -18.4 °C 34418.7 hPa ENE 2.6 km/h 12.9 km/h 95 % 0 mm 0 W/m2
03:50 -18 °C -18.4 °C 34418.7 hPa East 5.1 km/h 12.9 km/h 95 % 0 mm 0 W/m2
03:55 -18 °C -18.4 °C 34418.7 hPa East 2.6 km/h 12.9 km/h 95 % 0 mm 0 W/m2
04:00 -18 °C -18.4 °C 34418.7 hPa ENE 5.1 km/h 12.9 km/h 95 % 0 mm 0 W/m2
04:10 -18 °C -18.4 °C 34405.1 hPa ENE 5.1 km/h 15.6 km/h 95 % 0 mm 0 W/m2
04:20 -17.9 °C -18.3 °C 34405.1 hPa ENE 7.7 km/h 18.2 km/h 95 % 0 mm 0 W/m2
04:25 -17.9 °C -18.3 °C 34405.1 hPa ENE 18.2 km/h 18.2 km/h 95 % 0 mm 0 W/m2
04:30 -17.9 °C -18.3 °C 34405.1 hPa East 12.9 km/h 20.8 km/h 95 % 0 mm 0 W/m2
04:40 -17.8 °C -18.1 °C 34395 hPa East 12.9 km/h 25.9 km/h 96 % 0 mm 0 W/m2
04:50 -17.7 °C -18.1 °C 34395 hPa ENE 20.8 km/h 25.9 km/h 95 % 0 mm 0 W/m2
04:55 -17.7 °C -18.1 °C 34395 hPa ENE 18.2 km/h 25.9 km/h 95 % 0 mm 0 W/m2
05:00 -17.6 °C -18 °C 34395 hPa ENE 12.9 km/h 25.9 km/h 95 % 0 mm 0 W/m2
05:05 -17.6 °C -17.9 °C 34395 hPa East 5.1 km/h 23.3 km/h 95 % 0 mm 0 W/m2
05:10 -17.4 °C -17.9 °C 34395 hPa East 15.6 km/h 33.6 km/h 95 % 0 mm 0 W/m2
05:15 -17.4 °C -17.8 °C 34384.8 hPa East 20.8 km/h 33.6 km/h 95 % 0 mm 0 W/m2
05:20 -17.4 °C -17.8 °C 34384.8 hPa ENE 12.9 km/h 38.8 km/h 95 % 0 mm 0 W/m2
05:25 -17.3 °C -17.8 °C 34384.8 hPa East 25.9 km/h 38.8 km/h 94 % 0 mm 0 W/m2
05:30 -17.3 °C -17.8 °C 34384.8 hPa NE 18.2 km/h 46.7 km/h 94 % 0 mm 0 W/m2
05:40 -17.3 °C -17.9 °C 34384.8 hPa East 15.6 km/h 44.1 km/h 93 % 0 mm 0 W/m2
05:45 -17.3 °C -17.9 °C 34384.8 hPa East 12.9 km/h 41.4 km/h 92 % 0 mm 0 W/m2
05:55 -17.3 °C -18.1 °C 34384.8 hPa East 28.5 km/h 36.2 km/h 91 % 0 mm 0 W/m2
06:00 -17.3 °C -18.1 °C 34384.8 hPa East 20.8 km/h 36.2 km/h 91 % 0 mm 0 W/m2
06:10 -17.3 °C -18.2 °C 34384.8 hPa ENE 25.9 km/h 41.4 km/h 90 % 0 mm 0 W/m2
06:15 -17.4 °C -18.3 °C 34384.8 hPa East 20.8 km/h 38.8 km/h 89 % 0 mm 0 W/m2
06:20 -17.4 °C -18.3 °C 34384.8 hPa ENE 28.5 km/h 38.8 km/h 89 % 0 mm 0 W/m2
06:30 -17.4 °C -18.3 °C 34371.3 hPa ENE 28.5 km/h 41.4 km/h 88 % 0 mm 0 W/m2
06:40 -17.4 °C -18.3 °C 34371.3 hPa ENE 12.9 km/h 41.4 km/h 88 % 0 mm 0 W/m2
06:45 -17.3 °C -18.3 °C 34361.1 hPa East 23.3 km/h 46.7 km/h 88 % 0 mm 0 W/m2
06:50 -17.3 °C -18.3 °C 34361.1 hPa East 20.8 km/h 46.7 km/h 88 % 0 mm 0 W/m2
06:55 -17.3 °C -18.4 °C 34361.1 hPa ENE 41.4 km/h 49.2 km/h 87 % 0 mm 0 W/m2
07:05 -17.3 °C -18.4 °C 34361.1 hPa East 23.3 km/h 44.1 km/h 87 % 0 mm 0 W/m2
07:10 -17.3 °C -18.4 °C 34361.1 hPa East 12.9 km/h 41.4 km/h 87 % 0 mm 0 W/m2
07:20 -17.3 °C -18.4 °C 34361.1 hPa NE 7.7 km/h 46.7 km/h 86 % 0 mm 0 W/m2
07:25 -17.3 °C -18.4 °C 34361.1 hPa NE 25.9 km/h 44.1 km/h 86 % 0 mm 0 W/m2
07:30 -17.3 °C -18.5 °C 34361.1 hPa East 18.2 km/h 44.1 km/h 86 % 0 mm 0 W/m2
07:40 -17.4 °C -18.6 °C 34361.1 hPa East 23.3 km/h 57 km/h 86 % 7.62 mm 0 W/m2
07:50 -17.4 °C -18.6 °C 34361.1 hPa East 10.3 km/h 51.8 km/h 86 % 7.62 mm 0 W/m2
08:05 -17.4 °C -18.6 °C 34361.1 hPa East 25.9 km/h 57 km/h 86 % 7.62 mm 0 W/m2
08:10 -17.5 °C -18.7 °C 34361.1 hPa East 28.5 km/h 57 km/h 86 % 7.62 mm 0 W/m2
08:20 -17.5 °C -18.7 °C 34361.1 hPa East 41.4 km/h 44.1 km/h 86 % 7.62 mm 0 W/m2
08:25 -17.4 °C -18.6 °C 34361.1 hPa NE 31.1 km/h 49.2 km/h 86 % 7.62 mm 0 W/m2
08:30 -17.4 °C -18.6 °C 34347.6 hPa East 33.6 km/h 54.4 km/h 86 % 7.62 mm 5 W/m2
08:40 -17.4 °C -18.6 °C 34361.1 hPa East 41.4 km/h 57 km/h 86 % 0 mm 11 W/m2
08:45 -17.4 °C -18.6 °C 34361.1 hPa East 44.1 km/h 49.2 km/h 86 % 0 mm 14 W/m2
08:55 -17.4 °C -18.6 °C 34361.1 hPa ESE 23.3 km/h 57 km/h 86 % 0 mm 21 W/m2
09:00 -17.4 °C -18.6 °C 34361.1 hPa East 25.9 km/h 57 km/h 86 % 0 mm 26 W/m2
09:10 -17.3 °C -18.4 °C 34347.6 hPa East 18.2 km/h 46.7 km/h 86 % 0 mm 33 W/m2
09:15 -17.3 °C -18.4 °C 34347.6 hPa ENE 25.9 km/h 46.7 km/h 86 % 0 mm 39 W/m2
09:25 -17.3 °C -18.5 °C 34347.6 hPa ESE 36.2 km/h 57 km/h 85 % 0 mm 44 W/m2
09:30 -17.2 °C -18.4 °C 34347.6 hPa East 36.2 km/h 59.5 km/h 85 % 0 mm 40 W/m2
09:40 -17.2 °C -18.4 °C 34337.4 hPa East 18.2 km/h 49.2 km/h 85 % 0 mm 56 W/m2
09:50 -17.1 °C -18.4 °C 34337.4 hPa East 25.9 km/h 62.1 km/h 84 % 0 mm 77 W/m2
09:55 -17.1 °C -18.4 °C 34337.4 hPa ENE 41.4 km/h 69.8 km/h 84 % 0 mm 47 W/m2
10:00 -17.1 °C -18.4 °C 34337.4 hPa East 25.9 km/h 69.8 km/h 84 % 0 mm 54 W/m2
10:05 -17.1 °C -18.3 °C 34337.4 hPa ENE 25.9 km/h 57 km/h 85 % 0 mm 79 W/m2
10:10 -17.1 °C -18.4 °C 34327.3 hPa ENE 25.9 km/h 57 km/h 84 % 0 mm 93 W/m2
10:15 -17 °C -18.3 °C 34327.3 hPa East 23.3 km/h 59.5 km/h 84 % 0 mm 81 W/m2
10:25 -16.9 °C -18.3 °C 34327.3 hPa East 20.8 km/h 62.1 km/h 84 % 0 mm 77 W/m2
10:30 -16.9 °C -18.3 °C 34327.3 hPa East 41.4 km/h 67.3 km/h 84 % 0 mm 67 W/m2
10:40 -16.8 °C -18.2 °C 34327.3 hPa NE 15.6 km/h 59.5 km/h 84 % 0 mm 62 W/m2
10:45 -16.8 °C -18.2 °C 34313.7 hPa East 18.2 km/h 59.5 km/h 84 % 0 mm 81 W/m2
10:50 -16.8 °C -18.1 °C 34313.7 hPa NE 20.8 km/h 67.3 km/h 84 % 0 mm 88 W/m2
10:55 -16.8 °C -18.1 °C 34313.7 hPa East 44.1 km/h 67.3 km/h 84 % 0 mm 98 W/m2
11:00 -16.7 °C -18.1 °C 34313.7 hPa East 20.8 km/h 57 km/h 84 % 0 mm 86 W/m2
11:10 -16.7 °C -18.1 °C 34327.3 hPa East 25.9 km/h 57 km/h 84 % 0 mm 91 W/m2
11:15 -16.6 °C -18 °C 34313.7 hPa East 38.8 km/h 59.5 km/h 84 % 0 mm 111 W/m2
11:20 -16.6 °C -17.9 °C 34313.7 hPa SSE 20.8 km/h 59.5 km/h 84 % 0 mm 70 W/m2
11:25 -16.6 °C -17.9 °C 34313.7 hPa East 23.3 km/h 62.1 km/h 84 % 0 mm 70 W/m2
11:30 -16.6 °C -18 °C 34313.7 hPa East 28.5 km/h 62.1 km/h 84 % 0 mm 49 W/m2
11:40 -16.7 °C -17.9 °C 34313.7 hPa East 28.5 km/h 72.6 km/h 85 % 0 mm 40 W/m2
11:45 -16.7 °C -17.9 °C 34313.7 hPa East 36.2 km/h 57 km/h 86 % 0 mm 39 W/m2
11:50 -16.7 °C -17.9 °C 34313.7 hPa East 23.3 km/h 57 km/h 86 % 0 mm 40 W/m2
12:00 -16.8 °C -17.7 °C 34303.6 hPa ENE 49.2 km/h 57 km/h 89 % 0 mm 51 W/m2
12:10 -16.8 °C -17.7 °C 34303.6 hPa East 38.8 km/h 54.4 km/h 90 % 7.62 mm 60 W/m2
12:15 -16.8 °C -17.6 °C 34303.6 hPa ESE 41.4 km/h 62.1 km/h 91 % 12.7 mm 100 W/m2
12:25 -16.7 °C -17.4 °C 34303.6 hPa ESE 25.9 km/h 49.2 km/h 92 % 12.7 mm 102 W/m2
12:35 -16.8 °C -17.4 °C 34303.6 hPa ENE 36.2 km/h 59.5 km/h 92 % 12.7 mm 88 W/m2
12:40 -16.8 °C -17.4 °C 34293.4 hPa ESE 20.8 km/h 59.5 km/h 92 % 12.7 mm 125 W/m2
12:45 -16.7 °C -17.3 °C 34293.4 hPa East 23.3 km/h 46.7 km/h 93 % 12.7 mm 121 W/m2
12:55 -16.5 °C -17.1 °C 34279.9 hPa ENE 28.5 km/h 51.8 km/h 93 % 12.7 mm 162 W/m2
13:00 -16.5 °C -17.1 °C 34279.9 hPa NE 36.2 km/h 51.8 km/h 93 % 12.7 mm 151 W/m2
13:10 -16.5 °C -17.1 °C 34269.7 hPa East 23.3 km/h 62.1 km/h 93 % 7.62 mm 158 W/m2
13:15 -16.5 °C -17.1 °C 34269.7 hPa ESE 15.6 km/h 54.4 km/h 92 % 0 mm 151 W/m2
13:20 -16.4 °C -17.1 °C 34269.7 hPa East 18.2 km/h 46.7 km/h 92 % 0 mm 149 W/m2
13:25 -16.4 °C -17.1 °C 34269.7 hPa East 25.9 km/h 57 km/h 92 % 0 mm 113 W/m2
13:30 -16.4 °C -17.2 °C 34269.7 hPa East 12.9 km/h 59.5 km/h 91 % 0 mm 107 W/m2
13:40 -16.3 °C -17.1 °C 34269.7 hPa East 15.6 km/h 51.8 km/h 91 % 0 mm 158 W/m2
13:45 -16.3 °C -17 °C 34269.7 hPa ENE 12.9 km/h 51.8 km/h 91 % 0 mm 84 W/m2
13:50 -16.3 °C -17 °C 34256.2 hPa East 28.5 km/h 44.1 km/h 91 % 0 mm 84 W/m2
14:00 -16.2 °C -16.9 °C 34256.2 hPa East 25.9 km/h 57 km/h 91 % 0 mm 72 W/m2
14:10 -16.2 °C -16.9 °C 34246 hPa ENE 18.2 km/h 49.2 km/h 91 % 0 mm 93 W/m2
14:15 -16.2 °C -16.9 °C 34246 hPa East 15.6 km/h 46.7 km/h 91 % 0 mm 83 W/m2
14:20 -16.1 °C -16.8 °C 34246 hPa East 38.8 km/h 57 km/h 91 % 0 mm 83 W/m2
14:25 -16.1 °C -16.8 °C 34235.8 hPa East 20.8 km/h 57 km/h 91 % 0 mm 111 W/m2
14:30 -16.1 °C -16.9 °C 34235.8 hPa East 23.3 km/h 62.1 km/h 90 % 0 mm 141 W/m2
14:40 -15.9 °C -16.7 °C 34235.8 hPa ENE 41.4 km/h 49.2 km/h 90 % 0 mm 183 W/m2
14:55 -15.7 °C -16.6 °C 34212.1 hPa ENE 12.9 km/h 54.4 km/h 89 % 0 mm 204 W/m2
15:00 -15.7 °C -16.6 °C 34212.1 hPa East 18.2 km/h 62.1 km/h 89 % 0 mm 200 W/m2
15:10 -15.5 °C -16.4 °C 34222.3 hPa East 20.8 km/h 49.2 km/h 89 % 0 mm 193 W/m2
15:15 -15.4 °C -16.3 °C 34222.3 hPa ENE 10.3 km/h 49.2 km/h 89 % 0 mm 185 W/m2
15:20 -15.4 °C -16.4 °C 34212.1 hPa ENE 31.1 km/h 44.1 km/h 88 % 0 mm 155 W/m2
15:30 -15.3 °C -16.3 °C 34212.1 hPa East 20.8 km/h 54.4 km/h 88 % 0 mm 149 W/m2
15:40 -15.3 °C -16.3 °C 34212.1 hPa ENE 25.9 km/h 49.2 km/h 88 % 0 mm 118 W/m2
15:45 -15.3 °C -16.3 °C 34212.1 hPa East 44.1 km/h 49.2 km/h 88 % 0 mm 84 W/m2
15:50 -15.3 °C -16.3 °C 34212.1 hPa East 25.9 km/h 51.8 km/h 88 % 0 mm 104 W/m2
16:00 -15.2 °C -16.3 °C 34212.1 hPa ESE 7.7 km/h 51.8 km/h 88 % 0 mm 84 W/m2
16:10 -15.2 °C -16.2 °C 34198.6 hPa East 15.6 km/h 54.4 km/h 88 % 0 mm 95 W/m2
16:15 -15.2 °C -16.2 °C 34198.6 hPa East 33.6 km/h 44.1 km/h 88 % 0 mm 102 W/m2
16:25 -15.1 °C -16.1 °C 34198.6 hPa East 28.5 km/h 46.7 km/h 88 % 0 mm 86 W/m2
16:30 -15 °C -16 °C 34198.6 hPa East 28.5 km/h 46.7 km/h 88 % 0 mm 84 W/m2
16:40 -14.9 °C -16.1 °C 34198.6 hPa ESE 23.3 km/h 46.7 km/h 87 % 0 mm 54 W/m2
16:45 -14.9 °C -15.9 °C 34198.6 hPa ENE 23.3 km/h 46.7 km/h 88 % 0 mm 44 W/m2
16:50 -14.9 °C -16 °C 34198.6 hPa East 18.2 km/h 46.7 km/h 88 % 0 mm 40 W/m2
16:55 -14.9 °C -16 °C 34198.6 hPa East 15.6 km/h 44.1 km/h 88 % 0 mm 39 W/m2
17:00 -14.9 °C -16 °C 34198.6 hPa East 44.1 km/h 44.1 km/h 88 % 0 mm 37 W/m2
17:10 -14.9 °C -15.9 °C 34198.6 hPa East 15.6 km/h 41.4 km/h 89 % 0 mm 33 W/m2
17:20 -14.9 °C -15.8 °C 34188.4 hPa East 15.6 km/h 38.8 km/h 90 % 0 mm 28 W/m2
17:35 -14.9 °C -15.8 °C 34188.4 hPa East 12.9 km/h 33.6 km/h 90 % 0 mm 18 W/m2
17:40 -14.9 °C -15.8 °C 34188.4 hPa East 31.1 km/h 33.6 km/h 90 % 0 mm 16 W/m2
17:45 -14.9 °C -15.7 °C 34188.4 hPa ESE 20.8 km/h 36.2 km/h 90 % 0 mm 14 W/m2
17:55 -14.9 °C -15.7 °C 34188.4 hPa East 18.2 km/h 33.6 km/h 90 % 0 mm 9 W/m2
18:00 -14.9 °C -15.7 °C 34188.4 hPa ENE 23.3 km/h 33.6 km/h 90 % 0 mm 7 W/m2
18:10 -14.8 °C -15.7 °C 34188.4 hPa East 12.9 km/h 36.2 km/h 90 % 0 mm 0 W/m2
18:15 -14.8 °C -15.7 °C 34178.3 hPa ENE 23.3 km/h 36.2 km/h 90 % 0 mm 0 W/m2
18:20 -14.8 °C -15.7 °C 34178.3 hPa East 20.8 km/h 33.6 km/h 90 % 0 mm 0 W/m2
18:25 -14.8 °C -15.7 °C 34188.4 hPa East 12.9 km/h 33.6 km/h 90 % 0 mm 0 W/m2
18:35 -14.8 °C -15.7 °C 34188.4 hPa East 28.5 km/h 41.4 km/h 90 % 0 mm 0 W/m2
18:40 -14.8 °C -15.7 °C 34188.4 hPa East 12.9 km/h 41.4 km/h 90 % 0 mm 0 W/m2
18:45 -14.8 °C -15.6 °C 34188.4 hPa East 23.3 km/h 33.6 km/h 90 % 0 mm 0 W/m2
18:50 -14.8 °C -15.6 °C 34188.4 hPa ESE 18.2 km/h 38.8 km/h 90 % 0 mm 0 W/m2
19:00 -14.7 °C -15.6 °C 34178.3 hPa East 18.2 km/h 38.8 km/h 90 % 7.62 mm 0 W/m2
19:10 -14.7 °C -15.6 °C 34178.3 hPa East 20.8 km/h 38.8 km/h 90 % 7.62 mm 0 W/m2
19:20 -14.6 °C -15.4 °C 34178.3 hPa ESE 23.3 km/h 38.8 km/h 90 % 7.62 mm 0 W/m2
19:25 -14.6 °C -15.4 °C 34178.3 hPa East 10.3 km/h 44.1 km/h 90 % 7.62 mm 0 W/m2
19:35 -14.5 °C -15.3 °C 34178.3 hPa East 15.6 km/h 38.8 km/h 90 % 7.62 mm 0 W/m2
19:40 -14.4 °C -15.3 °C 34178.3 hPa ESE 18.2 km/h 38.8 km/h 90 % 7.62 mm 0 W/m2
19:50 -14.3 °C -15.2 °C 34178.3 hPa ESE 28.5 km/h 38.8 km/h 89 % 7.62 mm 0 W/m2
19:55 -14.3 °C -15.2 °C 34178.3 hPa ESE 18.2 km/h 41.4 km/h 89 % 7.62 mm 0 W/m2
20:05 -14.2 °C -15.1 °C 34164.7 hPa East 33.6 km/h 49.2 km/h 89 % 0 mm 0 W/m2
20:10 -14.1 °C -15.1 °C 34164.7 hPa East 28.5 km/h 49.2 km/h 89 % 0 mm 0 W/m2
20:20 -14.1 °C -15 °C 34154.6 hPa East 28.5 km/h 51.8 km/h 89 % 0 mm 0 W/m2
20:25 -14.1 °C -14.9 °C 34154.6 hPa ESE 7.7 km/h 51.8 km/h 90 % 0 mm 0 W/m2
20:30 -14 °C -14.8 °C 34154.6 hPa ESE 31.1 km/h 38.8 km/h 90 % 0 mm 0 W/m2
20:40 -13.9 °C -14.8 °C 34154.6 hPa ENE 28.5 km/h 46.7 km/h 89 % 0 mm 0 W/m2
20:45 -13.9 °C -14.8 °C 34154.6 hPa ESE 28.5 km/h 46.7 km/h 89 % 0 mm 0 W/m2
20:50 -13.8 °C -14.8 °C 34154.6 hPa East 20.8 km/h 44.1 km/h 89 % 0 mm 0 W/m2
21:00 -13.7 °C -14.7 °C 34154.6 hPa East 33.6 km/h 44.1 km/h 89 % 0 mm 0 W/m2
21:10 -13.7 °C -14.6 °C 34154.6 hPa ESE 31.1 km/h 38.8 km/h 89 % 0 mm 0 W/m2
21:15 -13.6 °C -14.7 °C 34154.6 hPa ESE 20.8 km/h 44.1 km/h 88 % 0 mm 0 W/m2
21:20 -13.6 °C -14.5 °C 34154.6 hPa ESE 33.6 km/h 44.1 km/h 89 % 0 mm 0 W/m2
21:25 -13.6 °C -14.5 °C 34154.6 hPa East 20.8 km/h 41.4 km/h 89 % 0 mm 0 W/m2
21:30 -13.5 °C -14.6 °C 34154.6 hPa ESE 18.2 km/h 44.1 km/h 88 % 0 mm 0 W/m2
21:40 -13.4 °C -14.4 °C 34154.6 hPa East 12.9 km/h 44.1 km/h 88 % 0 mm 0 W/m2
21:45 -13.4 °C -14.4 °C 34154.6 hPa East 23.3 km/h 44.1 km/h 88 % 0 mm 0 W/m2
21:50 -13.4 °C -14.4 °C 34154.6 hPa ESE 28.5 km/h 41.4 km/h 88 % 0 mm 0 W/m2
21:55 -13.3 °C -14.4 °C 34154.6 hPa ENE 12.9 km/h 41.4 km/h 87 % 0 mm 0 W/m2
22:00 -13.3 °C -14.3 °C 34154.6 hPa East 2.6 km/h 41.4 km/h 88 % 0 mm 0 W/m2
22:10 -13.3 °C -14.4 °C 34154.6 hPa East 18.2 km/h 38.8 km/h 87 % 0 mm 0 W/m2
22:15 -13.2 °C -14.3 °C 34154.6 hPa ESE 18.2 km/h 41.4 km/h 88 % 0 mm 0 W/m2
22:20 -13.2 °C -14.3 °C 34154.6 hPa ESE 12.9 km/h 49.2 km/h 87 % 0 mm 0 W/m2
22:25 -13.1 °C -14.3 °C 34154.6 hPa SE 18.2 km/h 49.2 km/h 87 % 0 mm 0 W/m2
22:30 -13.1 °C -14.2 °C 34154.6 hPa ESE 38.8 km/h 44.1 km/h 87 % 0 mm 0 W/m2
22:40 -13 °C -14.2 °C 34154.6 hPa ESE 25.9 km/h 46.7 km/h 86 % 0 mm 0 W/m2
22:45 -12.9 °C -14.2 °C 34154.6 hPa East 18.2 km/h 46.7 km/h 86 % 0 mm 0 W/m2
22:50 -12.9 °C -14.2 °C 34154.6 hPa ESE 18.2 km/h 44.1 km/h 86 % 0 mm 0 W/m2
23:00 -12.9 °C -14.1 °C 34154.6 hPa ESE 20.8 km/h 44.1 km/h 86 % 0 mm 0 W/m2
23:10 -12.8 °C -14.1 °C 34144.4 hPa ENE 28.5 km/h 51.8 km/h 86 % 0 mm 0 W/m2
23:15 -12.8 °C -14.1 °C 34144.4 hPa ESE 25.9 km/h 54.4 km/h 85 % 0 mm 0 W/m2
23:20 -12.8 °C -14.2 °C 34144.4 hPa East 33.6 km/h 54.4 km/h 85 % 0 mm 0 W/m2
23:25 -12.9 °C -14.2 °C 34144.4 hPa SE 25.9 km/h 38.8 km/h 85 % 0 mm 0 W/m2
23:30 -12.9 °C -14.2 °C 34144.4 hPa ESE 25.9 km/h 41.4 km/h 85 % 0 mm 0 W/m2
23:40 -12.9 °C -14.2 °C 34130.9 hPa SE 15.6 km/h 54.4 km/h 85 % 0 mm 0 W/m2
23:45 -12.8 °C -14.1 °C 34130.9 hPa East 25.9 km/h 54.4 km/h 85 % 0 mm 0 W/m2
23:50 -12.8 °C -14.1 °C 34130.9 hPa ESE 7.7 km/h 41.4 km/h 85 % 0 mm 0 W/m2
23:55 -12.8 °C -14.1 °C 34130.9 hPa ESE 23.3 km/h 57 km/h 85 % 0 mm 0 W/m2
Avec l'autorisation de Weather Underground - 1.5 mb